Time,TemperatureF,DewpointF,PressureIn,WindDirection,WindDirectionDegrees,WindSpeedMPH,WindSpeedGustMPH,Humidity,HourlyPrecipIn,Conditions,Clouds,dailyrainin,SolarRadiationWatts/m^2,SoftwareType,DateUTC
2013-09-29 00:00:00,79.8,77.9,30.45,ESE,119,0.0,-999.0,94,0.00,,,0.00,0,WeatherHawk,2013-09-29 05:00:00,
2013-09-29 00:05:00,79.6,78.4,30.45,ESE,119,0.0,-999.0,96,0.00,,,0.00,0,WeatherHawk,2013-09-29 05:05:00,
2013-09-29 00:10:00,79.4,78.8,30.45,ESE,119,0.0,-999.0,98,0.00,,,0.00,0,WeatherHawk,2013-09-29 05:10:00,
2013-09-29 00:15:00,79.6,79.6,30.45,ESE,119,0.0,-999.0,100,0.00,,,0.00,0,WeatherHawk,2013-09-29 05:15:00,
2013-09-29 00:20:00,79.2,79.2,30.45,ESE,119,0.0,-999.0,100,0.00,,,0.00,0,WeatherHawk,2013-09-29 05:20:00,
2013-09-29 00:25:00,80.3,80.0,30.45,ESE,119,0.0,-999.0,99,0.00,,,0.00,0,WeatherHawk,2013-09-29 05:25:00,
2013-09-29 00:30:00,79.8,78.9,30.45,ESE,119,0.0,-999.0,97,0.00,,,0.00,0,WeatherHawk,2013-09-29 05:30:00,
2013-09-29 00:35:00,79.3,78.7,30.44,SSE,162,0.0,-999.0,98,0.00,,,0.00,0,WeatherHawk,2013-09-29 05:35:00,
2013-09-29 00:40:00,79.8,78.9,30.45,SSE,156,0.0,-999.0,97,0.00,,,0.00,0,WeatherHawk,2013-09-29 05:40:00,
2013-09-29 00:45:00,79.6,78.6,30.45,SE,129,0.0,-999.0,97,0.00,,,0.00,0,WeatherHawk,2013-09-29 05:45:00,
2013-09-29 00:50:00,80.4,78.5,30.45,ESE,118,0.0,-999.0,94,0.00,,,0.00,0,WeatherHawk,2013-09-29 05:50:00,
2013-09-29 00:55:00,79.8,77.9,30.45,ESE,114,0.0,-999.0,94,0.00,,,0.00,0,WeatherHawk,2013-09-29 05:55:00,
2013-09-29 01:00:00,78.9,78.0,30.45,ESE,114,0.0,-999.0,97,0.00,,,0.00,0,WeatherHawk,2013-09-29 06:00:00,
2013-09-29 01:05:00,79.0,78.7,30.44,ESE,119,0.0,-999.0,99,0.00,,,0.00,0,WeatherHawk,2013-09-29 06:05:00,
2013-09-29 01:10:00,79.5,78.9,30.43,ESE,120,0.0,-999.0,98,0.00,,,0.00,0,WeatherHawk,2013-09-29 06:10:00,
2013-09-29 01:15:00,81.0,78.8,30.44,ESE,119,0.0,-999.0,93,0.00,,,0.00,0,WeatherHawk,2013-09-29 06:15:00,
2013-09-29 01:20:00,81.2,78.0,30.43,ENE,70,0.0,-999.0,90,0.00,,,0.00,0,WeatherHawk,2013-09-29 06:20:00,
2013-09-29 01:25:00,80.6,77.7,30.43,ENE,69,0.0,-999.0,91,0.00,,,0.00,0,WeatherHawk,2013-09-29 06:25:00,
2013-09-29 01:30:00,81.0,78.1,30.43,ENE,69,0.0,-999.0,91,0.00,,,0.00,0,WeatherHawk,2013-09-29 06:30:00,
2013-09-29 01:35:00,80.9,78.7,30.44,ENE,69,0.0,-999.0,93,0.00,,,0.00,0,WeatherHawk,2013-09-29 06:35:00,
2013-09-29 01:40:00,80.9,78.7,30.42,ENE,69,0.0,-999.0,93,0.00,,,0.00,0,WeatherHawk,2013-09-29 06:40:00,
2013-09-29 01:45:00,80.9,78.6,30.42,ENE,69,0.0,-999.0,93,0.00,,,0.00,0,WeatherHawk,2013-09-29 06:45:00,
2013-09-29 01:50:00,81.0,77.8,30.42,ENE,69,0.0,-999.0,90,0.00,,,0.00,0,WeatherHawk,2013-09-29 06:50:00,
2013-09-29 01:55:00,81.0,78.5,30.42,ENE,69,0.0,-999.0,92,0.00,,,0.00,0,WeatherHawk,2013-09-29 06:55:00,
2013-09-29 02:00:00,79.9,78.0,30.42,ENE,69,0.0,-999.0,94,0.00,,,0.00,0,WeatherHawk,2013-09-29 07:00:00,
2013-09-29 02:05:00,80.5,78.6,30.42,ENE,69,0.0,-999.0,94,0.00,,,0.00,0,WeatherHawk,2013-09-29 07:05:00,
2013-09-29 02:10:00,81.6,79.4,30.42,ENE,69,0.0,-999.0,93,0.00,,,0.00,0,WeatherHawk,2013-09-29 07:10:00,
2013-09-29 02:15:00,81.5,78.6,30.41,ENE,69,0.0,-999.0,91,0.00,,,0.00,0,WeatherHawk,2013-09-29 07:15:00,
2013-09-29 02:20:00,81.5,78.9,30.41,ENE,69,0.0,-999.0,92,0.00,,,0.00,0,WeatherHawk,2013-09-29 07:20:00,
2013-09-29 02:25:00,80.9,78.4,30.42,ENE,69,0.0,-999.0,92,0.00,,,0.00,0,WeatherHawk,2013-09-29 07:25:00,
2013-09-29 02:30:00,82.2,80.3,30.40,ENE,69,0.0,-999.0,94,0.00,,,0.00,0,WeatherHawk,2013-09-29 07:30:00,
2013-09-29 02:35:00,79.9,77.4,30.41,ENE,70,0.0,-999.0,92,0.00,,,0.00,0,WeatherHawk,2013-09-29 07:35:00,
2013-09-29 02:40:00,79.7,78.2,30.40,East,87,0.0,-999.0,95,0.00,,,0.00,0,WeatherHawk,2013-09-29 07:40:00,
2013-09-29 02:45:00,79.6,77.7,30.41,East,87,0.0,-999.0,94,0.00,,,0.00,0,WeatherHawk,2013-09-29 07:45:00,
2013-09-29 02:50:00,80.8,79.3,30.40,East,87,0.0,-999.0,95,0.00,,,0.00,0,WeatherHawk,2013-09-29 07:50:00,
2013-09-29 02:55:00,80.3,78.5,30.40,East,87,0.0,-999.0,94,0.00,,,0.00,0,WeatherHawk,2013-09-29 07:55:00,
2013-09-29 03:00:00,80.4,78.5,30.40,East,87,0.0,-999.0,94,0.00,,,0.00,0,WeatherHawk,2013-09-29 08:00:00,
2013-09-29 03:05:00,80.0,78.1,30.40,SW,224,0.0,-999.0,94,0.00,,,0.00,0,WeatherHawk,2013-09-29 08:05:00,
2013-09-29 03:10:00,80.2,78.3,30.40,SW,224,0.0,-999.0,94,0.00,,,0.00,0,WeatherHawk,2013-09-29 08:10:00,
2013-09-29 03:15:00,80.6,78.7,30.40,SSW,206,1.0,-999.0,94,0.00,,,0.00,0,WeatherHawk,2013-09-29 08:15:00,
2013-09-29 03:20:00,79.9,77.7,30.39,South,173,1.0,-999.0,93,0.00,,,0.00,0,WeatherHawk,2013-09-29 08:20:00,
2013-09-29 03:25:00,79.7,76.8,30.40,SSW,200,0.0,-999.0,91,0.00,,,0.00,0,WeatherHawk,2013-09-29 08:25:00,